Location: Edoum�
(0.9447°N, 10.6482°E)
Time: 14:43:00
(UTC+00:00)

ADEOS - Pass Details

Date: 07 June 2020
Orbit: 793 x 794 km, 98.9° (Epoch: 07 July)

Event Time Altitude Azimuth Distance (km) Brightness Sun altitude
Rises 03:11:47 0° 9° (N) 3,276 7.2 -28.1°
Reaches altitude 10° 03:14:06 10° 7° (N) 2,350 6.4 -27.5°
Enters shadow 03:18:58 70° 312° (NW) 839 3.5 -26.4°
